Location: Laguna de la Cañada del Gallo
(40.3974°N, 5.2096°W)
Time: 04:41:24
(UTC+00:00)

Atlas Centaur 2 - Visible Passes

Search period start: 25 July 2024 00:00
Search period end: 04 August 2024 00:00
Orbit: 457 x 1275 km, 30.4° (Epoch: 24 July)

Date Brightness Start Highest point End Pass type
(mag) Time Alt. Az. Time Alt. Az. Time Alt. Az.
25 Jul 4.4 01:13:46 21° ESE 01:13:46 21° ESE 01:16:50 10° ESE visible
25 Jul 3.5 02:55:58 33° SSW 02:58:30 41° S 03:06:06 10° ESE visible
25 Jul 3.7 04:39:49 10° WSW 04:47:13 36° SSW 04:54:16 10° SE visible
26 Jul 4.5 01:04:34 19° ESE 01:04:34 19° ESE 01:07:01 10° ESE visible
26 Jul 3.4 02:46:46 37° SSW 02:48:35 41° S 02:56:14 10° ESE visible
26 Jul 3.7 04:30:01 10° WSW 04:37:17 34° SSW 04:44:20 10° SE visible
27 Jul 4.7 00:55:28 16° ESE 00:55:28 16° ESE 00:57:10 10° ESE visible
27 Jul 3.3 02:37:41 40° SSW 02:38:40 41° S 02:46:20 10° ESE visible
27 Jul 3.8 04:20:15 10° WSW 04:27:20 32° SSW 04:34:20 10° SE visible
28 Jul 4.9 00:46:32 13° ESE 00:46:32 13° ESE 00:47:15 10° ESE visible
28 Jul 3.3 02:28:46 40° S 02:28:46 40° S 02:36:22 10° ESE visible
28 Jul 3.8 04:10:59 12° WSW 04:17:22 30° SSW 04:24:16 10° SE visible
29 Jul 3.5 02:20:02 37° SSE 02:20:02 37° SSE 02:26:22 10° ESE visible
29 Jul 3.9 04:02:17 15° WSW 04:07:24 28° SSW 04:14:07 10° SE visible
30 Jul 3.9 02:11:33 30° SSE 02:11:33 30° SSE 02:16:18 10° ESE visible
30 Jul 3.9 03:53:49 18° SW 03:57:25 25° SSW 04:03:52 10° SSE visible
31 Jul 4.3 02:03:20 21° SE 02:03:20 21° SE 02:06:12 10° SE visible
31 Jul 4.0 03:45:36 21° SW 03:47:26 23° SSW 03:53:30 10° SSE visible
01 Aug 4.9 01:55:21 12° SE 01:55:21 12° SE 01:56:02 10° SE visible
01 Aug 4.1 03:37:39 20° SSW 03:37:39 20° SSW 03:43:01 10° SSE visible
02 Aug 4.5 03:29:52 15° S 03:29:52 15° S 03:32:23 10° SSE visible
02 Aug 4.1 21:48:58 10° SW 21:49:15 11° SSW 21:49:15 11° SSW visible
03 Aug 3.7 21:39:15 10° SW 21:40:32 16° SSW 21:40:32 16° SSW visible
